Weather History for South St. Paul, MN

Change the Weather History Date:

Wednesday, July 24, 2013

  Actual Average (KMSP) Record (KMSP)
Temperature  
Mean Temperature 69 °F 74 °F  
Max Temperature 77 °F 83 °F 104 °F (1941)
Min Temperature 61 °F 64 °F 49 °F (1891)
Degree Days  
Heating Degree Days 0 0  
Month to date heating degree days 0  
Since 1 June heating degree days 44  
Since 1 July heating degree days 0  
Cooling Degree Days 4 9  
Month to date cooling degree days 214  
Year to date cooling degree days 414  
Since 1 June cooling degree days 372  
Growing Degree Days 19 (Base 50)    
Moisture  
Dew Point 55 °F    
Average Humidity 62    
Maximum Humidity 79    
Minimum Humidity 47    
Precipitation  
Precipitation 0.00 in 0.14 in 1.69 in (2012)
Month to date precipitation 3.09  
Year to date precipitation 16.92  
Snow  
Snow 0.00 in 0.00 in 0.00 in ()
Month to date snowfall 0.0  
Since 1 June snowfall 0.0  
Since 1 July snowfall 0.0  
Snow Depth -    
Sea Level Pressure  
Sea Level Pressure 30.04 in    
Wind  
Wind Speed 2 mph (SSE)    
Max Wind Speed 7 mph    
Max Gust Speed -    
Visibility 10 miles    
Events      
T = Trace of Precipitation, MM = Missing Value Source: NWS Daily Summary

Daily Weather History Graph

Daily Weather History Graph

Search for Another Location

Airport:

Trip Planner

Search our weather history database for the weather conditions in past years. The results will help you decide how hot, cold, wet, or windy it might be!

Date:

Astronomy

Jul. 24, 2013 Rise Set
Actual Time 5:49 AM CDT 8:47 PM CDT
Civil Twilight 5:14 AM CDT 9:21 PM CDT
Nautical Twilight 4:30 AM CDT 10:05 PM CDT
Astronomical Twilight 3:37 AM CDT 10:58 PM CDT
Moon 9:43 PM CDT (7/24) 8:18 AM CDT (7/24)
Length of Visible Light 16h 07m
Length of Day
14h 57m
Waning Gibbous, 94% of the Moon is Illuminated
Jul 24
Waning Gibbous
Jul 29
Last Quarter
Aug 6
New
Aug 14
First Quarter
Aug 20
Full

Hourly Weather History & Observations

Time (CDT) Temp. Dew Point Humidity Pressure Visibility Wind Dir Wind Speed Gust Speed Precip Events Conditions
12:13 AM 67.3 °F 54.9 °F 64% 30.03 in 10.0 mi ENE 3.5 mph - N/A   Clear
12:33 AM 67.6 °F 52.3 °F 58% 30.04 in 10.0 mi Calm Calm - N/A   Clear
12:53 AM 67.1 °F 51.8 °F 58% 30.03 in 10.0 mi SSE 3.5 mph - N/A   Clear
1:13 AM 66.4 °F 51.8 °F 59% 30.04 in 10.0 mi SSE 3.5 mph - N/A   Clear
1:33 AM 65.5 °F 51.8 °F 61% 30.04 in 10.0 mi Calm Calm - N/A   Clear
1:53 AM 64.9 °F 51.8 °F 62% 30.04 in 10.0 mi Calm Calm - N/A   Clear
2:13 AM 64.2 °F 52.9 °F 67% 30.04 in 10.0 mi Calm Calm - N/A   Clear
2:33 AM 63.9 °F 52.7 °F 67% 30.05 in 10.0 mi Calm Calm - N/A   Clear
2:53 AM 63.5 °F 52.9 °F 68% 30.05 in 10.0 mi Calm Calm - N/A   Clear
3:13 AM 63.5 °F 52.3 °F 67% 30.05 in 10.0 mi Calm Calm - N/A   Clear
3:33 AM 62.4 °F 53.2 °F 72% 30.05 in 10.0 mi Calm Calm - N/A   Clear
3:53 AM 62.2 °F 53.2 °F 72% 30.05 in 10.0 mi Calm Calm - N/A   Scattered Clouds
4:13 AM 61.9 °F 53.6 °F 74% 30.05 in 10.0 mi Calm Calm - N/A   Mostly Cloudy
4:33 AM 61.7 °F 54.0 °F 76% 30.05 in 10.0 mi Calm Calm - N/A   Scattered Clouds
4:53 AM 61.2 °F 53.8 °F 77% 30.05 in 10.0 mi Calm Calm - N/A   Clear
5:13 AM 61.7 °F 54.3 °F 77% 30.06 in 10.0 mi Calm Calm - N/A   Clear
5:33 AM 61.7 °F 54.5 °F 77% 30.06 in 10.0 mi Calm Calm - N/A   Clear
5:53 AM 62.2 °F 54.5 °F 76% 30.06 in 10.0 mi Calm Calm - N/A   Clear
6:13 AM 63.0 °F 52.7 °F 69% 30.07 in 10.0 mi Calm Calm - N/A   Mostly Cloudy
6:33 AM 62.8 °F 52.7 °F 70% 30.07 in 10.0 mi Calm Calm - N/A   Mostly Cloudy
6:53 AM 63.0 °F 52.2 °F 68% 30.07 in 10.0 mi Calm Calm - N/A   Scattered Clouds
7:13 AM 63.3 °F 52.5 °F 68% 30.07 in 10.0 mi Calm Calm - N/A   Mostly Cloudy
7:33 AM 63.5 °F 53.6 °F 70% 30.07 in 10.0 mi Calm Calm - N/A   Mostly Cloudy
7:53 AM 64.6 °F 52.9 °F 66% 30.08 in 10.0 mi Calm Calm - N/A   Overcast
8:13 AM 65.3 °F 52.3 °F 63% 30.08 in 10.0 mi SSE 3.5 mph - N/A   Overcast
8:33 AM 65.5 °F 52.7 °F 63% 30.08 in 10.0 mi SSE 3.5 mph - N/A   Overcast
8:53 AM 65.8 °F 52.3 °F 62% 30.08 in 10.0 mi SSE 4.6 mph - N/A   Overcast
9:13 AM 66.2 °F 53.1 °F 63% 30.09 in 10.0 mi SSE 3.5 mph - N/A   Overcast
9:33 AM 66.7 °F 54.0 °F 63% 30.09 in 10.0 mi Calm Calm - N/A   Overcast
9:53 AM 67.3 °F 52.7 °F 59% 30.09 in 10.0 mi SSW 4.6 mph - N/A   Overcast
10:13 AM 67.5 °F 52.7 °F 59% 30.08 in 10.0 mi SSW 6.9 mph - N/A   Mostly Cloudy
10:33 AM 68.4 °F 53.1 °F 58% 30.08 in 10.0 mi SSW 4.6 mph - N/A   Mostly Cloudy
10:53 AM 68.9 °F 53.4 °F 58% 30.07 in 10.0 mi SSW 4.6 mph - N/A   Mostly Cloudy
11:13 AM 69.3 °F 53.4 °F 57% 30.07 in 10.0 mi South 3.5 mph - N/A   Mostly Cloudy
11:33 AM 69.3 °F 54.1 °F 59% 30.08 in 10.0 mi SW 4.6 mph - N/A   Scattered Clouds
11:53 AM 69.8 °F 54.5 °F 58% 30.08 in 10.0 mi West 4.6 mph - N/A   Scattered Clouds
12:13 PM 69.8 °F 54.7 °F 59% 30.08 in 10.0 mi WSW 6.9 mph - N/A   Mostly Cloudy
12:33 PM 68.5 °F 55.6 °F 63% 30.08 in 10.0 mi Calm Calm - N/A   Overcast
12:53 PM 68.7 °F 54.9 °F 61% 30.07 in 10.0 mi Calm Calm - N/A   Overcast
1:13 PM 68.9 °F 55.2 °F 62% 30.07 in 10.0 mi Calm Calm - N/A   Mostly Cloudy
1:33 PM 71.4 °F 55.0 °F 56% 30.06 in 10.0 mi South 3.5 mph - N/A   Scattered Clouds
1:53 PM 72.5 °F 54.5 °F 53% 30.05 in 10.0 mi East 3.5 mph - N/A   Scattered Clouds
2:13 PM 73.8 °F 54.7 °F 51% 30.03 in 10.0 mi SSE 6.9 mph - N/A   Clear
2:33 PM 75.0 °F 54.0 °F 48% 30.03 in 10.0 mi SSE 6.9 mph - N/A   Clear
2:53 PM 75.2 °F 54.7 °F 49% 30.03 in 10.0 mi SSE 3.5 mph - N/A   Clear
3:13 PM 75.6 °F 55.6 °F 50% 30.03 in 10.0 mi SE 5.8 mph - N/A   Scattered Clouds
3:33 PM 76.3 °F 55.6 °F 49% 30.03 in 10.0 mi SE 6.9 mph - N/A   Mostly Cloudy
3:58 PM 75.9 °F 54.9 °F 48% 30.02 in 10.0 mi South 6.9 mph - N/A   Mostly Cloudy
4:13 PM 76.5 °F 55.6 °F 48% 30.01 in 10.0 mi Calm Calm - N/A   Mostly Cloudy
4:33 PM 76.5 °F 56.1 °F 49% 30.01 in 10.0 mi SSW 5.8 mph - N/A   Mostly Cloudy
4:53 PM 77.4 °F 55.8 °F 47% 30.00 in 10.0 mi South 6.9 mph - N/A   Mostly Cloudy
5:13 PM 76.8 °F 56.8 °F 50% 30.00 in 10.0 mi South 5.8 mph - N/A   Scattered Clouds
5:33 PM 76.3 °F 57.2 °F 52% 30.00 in 10.0 mi SSE 5.8 mph - N/A   Mostly Cloudy
5:53 PM 75.6 °F 57.0 °F 52% 29.99 in 10.0 mi SE 3.5 mph - N/A   Overcast
6:13 PM 76.5 °F 57.7 °F 52% 29.99 in 10.0 mi Calm Calm - N/A   Overcast
6:33 PM 77.0 °F 56.3 °F 49% 29.99 in 10.0 mi SSW 5.8 mph - N/A   Mostly Cloudy
6:53 PM 76.6 °F 56.7 °F 50% 29.99 in 10.0 mi South 3.5 mph - N/A   Scattered Clouds
7:13 PM 76.3 °F 57.4 °F 52% 29.99 in 10.0 mi SE 4.6 mph - N/A   Clear
7:33 PM 75.6 °F 58.1 °F 55% 29.98 in 10.0 mi SSE 4.6 mph - N/A   Scattered Clouds
7:53 PM 75.6 °F 58.1 °F 55% 29.98 in 10.0 mi SSE 6.9 mph - N/A   Mostly Cloudy
8:13 PM 74.5 °F 58.1 °F 57% 29.98 in 10.0 mi SE 3.5 mph - N/A   Scattered Clouds
8:53 PM 72.5 °F 58.5 °F 61% 29.98 in 10.0 mi SSE 3.5 mph - N/A   Clear
9:13 PM 71.6 °F 59.0 °F 64% 29.98 in 10.0 mi SSE 4.6 mph - N/A   Clear
9:33 PM 71.2 °F 59.0 °F 65% 29.99 in 10.0 mi SSE 4.6 mph - N/A   Clear
9:53 PM 70.9 °F 59.4 °F 67% 29.99 in 10.0 mi South 3.5 mph - N/A   Clear
10:13 PM 70.2 °F 59.7 °F 69% 29.99 in 10.0 mi SSE 3.5 mph - N/A   Clear
10:33 PM 69.8 °F 59.0 °F 68% 30.00 in 10.0 mi SSE 3.5 mph - N/A   Clear
10:53 PM 69.1 °F 59.9 °F 72% 29.99 in 10.0 mi Calm Calm - N/A   Clear
11:13 PM 68.5 °F 60.1 °F 74% 30.00 in 10.0 mi Calm Calm - N/A   Clear
11:33 PM 68.2 °F 60.8 °F 77% 29.99 in 10.0 mi Calm Calm - N/A   Clear
11:53 PM 67.6 °F 60.8 °F 79% 29.99 in 10.0 mi Calm Calm - N/A   Clear